Search for airport 
image banner adimage banner adimage banner ad
image banner ad

8CA9 - Kgtv-10 Parking Lot

Located in San Diego, United States

ICAO - 8CA9, IATA -

Data provided by Airmate  

General information

Coordinates: N32°43'13" W117°5'51"
Elevation is 200 feet MSL.
Magnetic variation is 13° East
View others Airports in California

Operational data

Special qualification required
Current time UTC:
Current local time:
Weather at : KSAN - San Diego Intl ( 9 km )
METAR: KSAN 141051Z 01004KT 10SM BKN008 18/14 A2990 RMK AO2 SLP124 T01780144
TAF: KSAN 141129Z 1412/1518 VRB04KT P6SM BKN008 TEMPO 1412/1415 SCT010 FM141500 31005KT P6SM FEW010 FM141800 30011KT P6SM FEW200 FM150300 VRB05KT P6SM FEW007 FEW200 TEMPO 1510/1514 6SM BR BKN006
View NOTAMs / SUP AIP / TFR affecting this airport [VIEW]
Communications frequencies: [VIEW]

Runways:

Airport contact information

Address: San Diego United States

Satellite view of 8CA9